User: anonymous   Login
Location: Regona
(45.2000°N, 9.8167°E)
Time: 18:44:08
(UTC+00:00)
Language:

Cosmos 2263 Rocket - Orbit

View from above orbital plane
View from above orbital plane
View from above satellite
View from above satellite

Ground track
Ground track

The orbit data is extracted from the following two-line orbital elements,

1 22803U 93059B   21212.67708596  .00000183  00000-0  11511-3 0  9991
2 22803  70.9917 316.8524 0019374 254.8984 104.9996 14.16840458441269
Epoch (UTC): 31 July 2021 16:15:00
Eccentricity: 0.0019374
inclination: 70.9917°
perigee height: 822 km
apogee height: 850 km
right ascension of ascending node: 316.8524°
argument of perigee: 254.8984°
revolutions per day: 14.16840458
mean anomaly at epoch: 104.9996°
orbit number at epoch: 44126

The dashed part of the orbit path shows where the satellite is in the earth's shadow,  

DLR